Location: Lucerne Valley
(34.4439°N, 116.9669°E)
Time: 13:51:20
(UTC-08:00)

Tiangong 2 - Pass Details

Date: 16 October 2017
Orbit: 386 x 390 km, 42.8° (Epoch: 15 December)

Event Time Altitude Azimuth Distance (km) Brightness Sun altitude
Exits shadow 13:58:09 18° 344° (NNW) 1,021 3.0 -17.4°
Maximum altitude 13:59:09 21° 11° (N) 929 3.1 -17.2°
Drops below altitude 10° 14:01:42 10° 64° (ENE) 1,420 4.9 -16.7°
Sets 14:04:06 0° 81° (E) 2,275 6.7 -16.2°
